Location: Rotheul
(50.2849°N, 11.2349°E)
Time: 02:16:53
(UTC+02:00)

ISS - Pass Details

Date: 21 July 2018
Orbit: 402 x 408 km, 51.6° (Epoch: 17 July)

Event Time Altitude Azimuth Distance (km) Brightness Sun altitude
Rises 01:21:28 0° 274° (W) 2,325 0.1 -19.2°
Reaches altitude 10° 01:23:33 10° 277° (W) 1,466 -0.9 -19.2°
Maximum altitude 01:26:50 67° 1° (N) 446 -3.5 -19.2°
Drops below altitude 10° 01:30:06 10° 85° (E) 1,469 -0.9 -19.2°
Sets 01:32:12 0° 88° (E) 2,330 0.1 -19.2°
